Location: *
(33.8649°S, 62.1526°E)
Time: 13:16:26
(UTC+00:00)

USA 229 - Pass Details

Date: 17 January 2021
Orbit: 964 x 1248 km, 63.4° (Epoch: 26 February)

Event Time Altitude Azimuth Distance (km) Brightness Sun altitude
Exits shadow 20:43:26 50° 245° (WSW) 1,519 4.4 -34.7°
Maximum altitude 20:43:53 50° 235° (SW) 1,507 4.4 -34.6°
Drops below altitude 10° 20:51:06 10° 160° (SSE) 3,086 6.9 -34.3°
Sets 20:53:53 0° 154° (SSE) 4,011 7.7 -34.2°
